Address 0x651e310cc528b2a2468e33ee5b82625770134d98

 
Txn Hash
Block
From
To
Value [Txn Fee]
0x36a4dedc3b85e4d5db1ade199bb93e4e5344eaf2d75b1c250fc4b0d4778a667796446522021-08-01 0:42:155 mins ago0x651e310cc528b2a2468e33ee5b82625770134d98OUT 0xdb69c82fc6573b49272777d090211891673fdac70 BNB0.000243558
0xadf67f3feb897ea874660582b67debdd9ed923a6b4c2d97e467d75c4f01ca03b96445822021-08-01 0:38:449 mins ago0x651e310cc528b2a2468e33ee5b82625770134d98OUT 0x22c88156e08218f5551460b491d8436b34be92ca0 BNB0.00018402
0x782ce65b6452e4ddb3fc6d267d3cd0f1b520feaacf2c5e3b70295527feca8b0d96442452021-08-01 0:21:4126 mins ago0x651e310cc528b2a2468e33ee5b82625770134d98OUT 0x22c88156e08218f5551460b491d8436b34be92ca0 BNB0.000193190347
0x0b00ab4d0c4bbc68bcfe0bff8b1785224587b5fdd16e23e5137e6573f387860496438652021-08-01 0:02:4145 mins ago0x651e310cc528b2a2468e33ee5b82625770134d98OUT 0x22c88156e08218f5551460b491d8436b34be92ca0 BNB0.000212485
0xabffbc2f16d42ed0b913bbeee9fe9af79fe939d49d0cc29d9dec1d6d4ea3f81d96438582021-08-01 0:02:2045 mins ago0x651e310cc528b2a2468e33ee5b82625770134d98OUT 0xb00b243fc9e855d3b313e31b167bc25130f801220 BNB0.000243714
0x0c9225acfba4821780f8696a49843154436d37011b434e1cd1ecbd6a1981967996437512021-07-31 23:56:5351 mins ago0x651e310cc528b2a2468e33ee5b82625770134d98OUT 0xe75bfbf8863d69b3b3a922cc56c99fb6e986f4760 BNB0.00019319
0x1baa3220f339a4b5a2ecddee2a80611c475b6efee09535155abefdb65894c1c996432062021-07-31 23:28:081 hr 19 mins ago0x651e310cc528b2a2468e33ee5b82625770134d98OUT 0xf1c873afbf1a9d01c1c09c7124c4ad759b2e4e110 BNB0.000184365
0xdba6bed86d57078140a6c190c8a90ac550446fe7fc1c7f442e6b3a5a0a96d47096430322021-07-31 23:19:261 hr 28 mins ago0x651e310cc528b2a2468e33ee5b82625770134d98OUT 0xe75bfbf8863d69b3b3a922cc56c99fb6e986f4760 BNB0.000920925
0x68a629ffc15362c94d29e758cee10c6050c3030fbdc8ae663cd3afbefc9be55c96430162021-07-31 23:18:381 hr 29 mins ago0x651e310cc528b2a2468e33ee5b82625770134d98OUT 0x16d12bbdd19bf74290afc72feeedc726a1904da90 BNB0.000184135
0x6124f6f946b0117e9dce6f30b8d742f271ba30b3d731387df3ece3be720b55b496429812021-07-31 23:16:531 hr 31 mins ago0x651e310cc528b2a2468e33ee5b82625770134d98OUT 0xc18a3efae1233c1dd76ff4926ced399c1e4a8f230 BNB0.00018437
0xb3b64bbe1b1d55b00582af366968183b3c1c5fa9caaeaceed98ce8b5974095b296428662021-07-31 23:11:041 hr 36 mins ago0x651e310cc528b2a2468e33ee5b82625770134d98SELF0x651e310cc528b2a2468e33ee5b82625770134d980 BNB0.00011655
0x912813c8d536fe769b7c0391e6f5f2a82e6efb82f9f681f0d94b92fd674afb1f96428252021-07-31 23:08:551 hr 39 mins ago0x651e310cc528b2a2468e33ee5b82625770134d98OUT 0x8f7b5623bf5baeae5f9f33b296d8239647b038000 BNB0.000221034
0x880789c678b8fbb53f72abb77d3642ee7ca8c13c0240055bd42522b9ac172f8c96426832021-07-31 23:01:311 hr 46 mins ago0x651e310cc528b2a2468e33ee5b82625770134d98OUT 0xf1c873afbf1a9d01c1c09c7124c4ad759b2e4e110 BNB0.000221245
0x24dacbd8a2a580856405ec42828816b05c74e133645563975cf1f043f0b2656796425522021-07-31 22:54:581 hr 53 mins ago0x651e310cc528b2a2468e33ee5b82625770134d98OUT 0x22c88156e08218f5551460b491d8436b34be92ca0 BNB0.000945515
0xfa22a141fff0bda37d822951bbbc94c5c05cd9eadf40588e7449c9be73336fe696423432021-07-31 22:44:312 hrs 3 mins ago0x651e310cc528b2a2468e33ee5b82625770134d98OUT 0x5d458938918e00e5e41d88009d55ec2e8c2f5bb10 BNB0.000265098
0xc9b07f9f6e623ca829ed7ca1e89ab395419fe842b728a372dc4dc386a8c13f9896422812021-07-31 22:41:232 hrs 6 mins ago0x651e310cc528b2a2468e33ee5b82625770134d98OUT 0xb16162b7a8351e0e8a51f99deb3c3e98f7c0d22a0 BNB0.000184365
0x3cbadf89a5437898e1a4f121e816dbcfad019c2c80bb6f3c14831fb0dbbfdcde96420992021-07-31 22:31:402 hrs 16 mins ago0x651e310cc528b2a2468e33ee5b82625770134d98OUT 0xf1c873afbf1a9d01c1c09c7124c4ad759b2e4e110 BNB0.00021186
0xf28852fe60e8750b2b05fa0af817f28571e90c86fdffaaf8b2bc10bf4bd0b33996420902021-07-31 22:31:082 hrs 16 mins ago0x651e310cc528b2a2468e33ee5b82625770134d98OUT 0x5d458938918e00e5e41d88009d55ec2e8c2f5bb10 BNB0.000184255
0x20d1518acf298eb6d2c3fb4b5be58f78cd8499739529b24ff2c78499f305acc596420542021-07-31 22:29:112 hrs 18 mins ago0x651e310cc528b2a2468e33ee5b82625770134d98OUT 0xb16162b7a8351e0e8a51f99deb3c3e98f7c0d22a0 BNB0.000588823113
0x8be1e8fcb37e3719af7f4335ccdc5439f8d4f1df753c80291415d6be42edbf7996419212021-07-31 22:22:322 hrs 25 mins ago0x651e310cc528b2a2468e33ee5b82625770134d98OUT 0xe75bfbf8863d69b3b3a922cc56c99fb6e986f4760 BNB0.001059845
0x792cc1331167c3ab7f2461a93ce8bbfaa7d86837ee7c98671fee7097d79e39b496417482021-07-31 22:13:492 hrs 34 mins ago0x651e310cc528b2a2468e33ee5b82625770134d98OUT 0x1601b30fc3c9a1832711305a71e75289e38c03170 BNB0.00018402
0x66f6179701d822f3752bf486a7489f16f1efb4c85645ce7b0f592b3414a49a9296417412021-07-31 22:13:282 hrs 34 mins ago0x651e310cc528b2a2468e33ee5b82625770134d98SELF0x651e310cc528b2a2468e33ee5b82625770134d980 BNB0.00011655
0x19a15cbb26e8e1c69f746f6831c48fe5adeab7f730a550f63459a930d54a4f5696414762021-07-31 22:00:132 hrs 47 mins ago0x651e310cc528b2a2468e33ee5b82625770134d98OUT 0x1601b30fc3c9a1832711305a71e75289e38c03170 BNB0.00084014
0x90588c8c534ef63adc9f88de58ef1e98cb42711a3dd590acaecff84cc2214e8596411972021-07-31 21:46:163 hrs 1 min ago0x651e310cc528b2a2468e33ee5b82625770134d98OUT 0x87d4e77ead24272b76f13c59e7e75c5952a3c9930 BNB0.000265074
0x4412054429da60842dd66f2cb4b68f76b606bde94c02d967d06b78c424a157eb96411802021-07-31 21:45:253 hrs 2 mins ago0x651e310cc528b2a2468e33ee5b82625770134d98OUT 0x22c88156e08218f5551460b491d8436b34be92ca0 BNB0.000221244
[ Download CSV Export 
Parent Txn Hash Block From To Value
Loading

Contract Name:
0 BNB

Compiler Version
0

Optimization Enabled:
0 BNB

Other Settings:
-NA-
Block Transaction Gas Used Reward
Age Block Fee Address BC Fee Address Voting Power Jailed Incoming
Block Uncle Number Difficulty Gas Used Reward
Loading
Loading
Make sure to use the "Vote Down" button for any spammy posts, and the "Vote Up" for interesting conversations.